Location: Bussy-Saint-Georges
(48.8410°N, 2.7017°E)
Time: 21:41:39
(UTC+00:00)

Cosmos 1934 Rocket - Pass Details

Date: 18 October 2021
Orbit: 939 x 998 km, 83.0° (Epoch: 07 December)

Event Time Altitude Azimuth Distance (km) Brightness Sun altitude
Rises 18:36:13 0° 184° (S) 3,627 7.0 -17.6°
Reaches altitude 10° 18:38:42 10° 184° (S) 2,677 6.3 -18.0°
Maximum altitude 18:44:49 83° 98° (E) 960 3.8 -19.0°
Drops below altitude 10° 18:50:55 10° 11° (N) 2,668 6.3 -20.0°
Sets 18:53:24 0° 10° (N) 3,614 7.0 -20.4°
